Weather History for Alexandria Esle, LA

Change the Weather History Date:

Monday, January 21, 2013

  Actual Average Record
Temperature  
Mean Temperature 52 °F -  
Max Temperature 68 °F 60 °F 81 °F (2012)
Min Temperature 37 °F 36 °F 18 °F (1960)
Degree Days  
Heating Degree Days 12    
Growing Degree Days 2 (Base 50)    
Moisture  
Dew Point 39 °F    
Average Humidity 74    
Maximum Humidity 93    
Minimum Humidity 47    
Precipitation  
Precipitation 0.00 in - - ()
Sea Level Pressure  
Sea Level Pressure 30.21 in    
Wind  
Wind Speed 2 mph (ENE)    
Max Wind Speed 9 mph    
Max Gust Speed -    
Visibility 9 miles    
Events      
Averages and records for this station are not official NWS values.
T = Trace of Precipitation, MM = Missing Value Source: NWS Daily Summary

Daily Weather History Graph

Daily Weather History Graph

Search for Another Location

Airport:

Trip Planner

Search our weather history database for the weather conditions in past years. The results will help you decide how hot, cold, wet, or windy it might be!

Date:

Astronomy

Jan. 21, 2013 Rise Set
Actual Time 7:07 AM CST 5:34 PM CST
Civil Twilight 6:41 AM CST 6:00 PM CST
Nautical Twilight 6:11 AM CST 6:29 PM CST
Astronomical Twilight 5:42 AM CST 6:58 PM CST
Moon 1:15 PM CST (1/21) 2:35 AM CST (1/21)
Length of Visible Light 11h 19m
Length of Day
10h 27m
Waxing Gibbous, 75% of the Moon is Illuminated
Jan 21
Waxing Gibbous
Jan 26
Full
Feb 3
Last Quarter
Feb 10
New
Feb 17
First Quarter

Hourly Weather History & Observations

Time (CST) Temp. Windchill Dew Point Humidity Pressure Visibility Wind Dir Wind Speed Gust Speed Precip Events Conditions
12:53 AM 37.9 °F - 36.0 °F 93% 30.16 in 6.0 mi Calm Calm - N/A   Clear
1:53 AM 37.9 °F - 36.0 °F 93% 30.16 in 5.0 mi Calm Calm - N/A   Clear
2:53 AM 37.4 °F - 35.6 °F 93% 30.17 in 7.0 mi Calm Calm - N/A   Clear
3:53 AM 37.0 °F - 35.1 °F 93% 30.17 in 6.0 mi Calm Calm - N/A   Clear
4:53 AM 37.0 °F - 35.1 °F 93% 30.17 in 10.0 mi Calm Calm - N/A   Clear
5:53 AM 37.9 °F 35.5 °F 35.1 °F 89% 30.18 in 10.0 mi WSW 3.5 mph - N/A   Clear
6:53 AM 37.0 °F - 35.1 °F 93% 30.19 in 8.0 mi Calm Calm - N/A   Clear
7:53 AM 37.9 °F - 36.0 °F 93% 30.21 in 7.0 mi Calm Calm - N/A   Clear
8:53 AM 45.0 °F - 42.1 °F 90% 30.22 in 10.0 mi Calm Calm - N/A   Clear
9:53 AM 55.9 °F - 48.0 °F 75% 30.23 in 10.0 mi Calm Calm - N/A   Clear
10:53 AM 62.1 °F - 48.0 °F 60% 30.23 in 10.0 mi Calm Calm - N/A   Clear
11:53 AM 66.0 °F - 46.9 °F 50% 30.22 in 10.0 mi NE 5.8 mph - N/A   Clear
12:53 PM 68.0 °F - 46.9 °F 47% 30.20 in 10.0 mi Variable 6.9 mph - N/A   Clear
1:53 PM 64.9 °F - 48.0 °F 54% 30.19 in 10.0 mi Variable 5.8 mph - N/A   Mostly Cloudy
2:53 PM 63.0 °F - 46.0 °F 54% 30.20 in 10.0 mi East 8.1 mph - N/A   Mostly Cloudy
3:53 PM 59.0 °F - 43.0 °F 55% 30.22 in 10.0 mi Variable 5.8 mph - N/A   Overcast
4:53 PM 55.0 °F - 39.9 °F 57% 30.24 in 10.0 mi ENE 9.2 mph - N/A   Mostly Cloudy
5:53 PM 51.1 °F - 37.9 °F 61% 30.24 in 10.0 mi ENE 4.6 mph - N/A   Clear
6:53 PM 48.9 °F - 36.0 °F 61% 30.24 in 10.0 mi Variable 3.5 mph - N/A   Clear
7:53 PM 44.1 °F - 37.0 °F 76% 30.23 in 10.0 mi Calm Calm - N/A   Clear
8:53 PM 41.0 °F - 36.0 °F 82% 30.24 in 10.0 mi Calm Calm - N/A   Clear
9:53 PM 44.1 °F 41.5 °F 34.0 °F 68% 30.25 in 10.0 mi NE 4.6 mph - N/A   Clear
10:53 PM 44.1 °F - 34.0 °F 68% 30.25 in 10.0 mi Calm Calm - N/A   Mostly Cloudy
11:53 PM 43.0 °F 40.3 °F 34.0 °F 71% 30.26 in 10.0 mi Variable 4.6 mph - N/A   Partly Cloudy